Reflectivity
-20 -20 -20 -20 -20 -20 -20 -20 -20 -20 -20 -20 -20 -20 -20 -20 -20 -20 -20 -20 -20 -20
-20 -20 -20 -20 -20 -20 -20 -20 -20 -20 -20 -20 -20 -20 -20 -20 -20 -20 -20 -20 -20 -20
-20 -20 -20 -20 -20 -20 -20 -20 -20 -20 -20 -20 -20 -20 -20 -20 -20 -20 -20 -20 -20 -20
-20 -20 -20 -20 -20 -20 -20 -20 -20 -20 -20 -20 -20 -20 -20 -20 -20 -20 -20 -20 -20 -20
-20 -20 -20 -20 -20 -20 -20 -20 -20 -20 -20 -20 -20 -20 -20 -20 -20 -20 -20 -20 -20 -20
-20 -20 -20 -20 -20 -20 -20 -20 -20 -20 -20 -20 -20 -20 -20 -20 -20 -20 -20 -20 -20 -20
-20 -20 -20 -20 -20 -20 -20 -20 -20 -20 -20 -20 -20 -20 -20 -20 -20 -20 -20 -20 -20 -20
-20 -20 -20 -20 -20 -20 -20 -20 -20 -20 -20 -20 -20 -20 -20 -20 -20 -20 -20 -20 -20 -20
-20 -20 -20 -20 -20 -20 -20 -20 -20 -20 -20 -20 -20 -20 -20 -20 -20 -20 -20 -20 -20 -20
-20 -20 -20 -20 -20 -20 -20 -20 -20 -20 -20 -20 -20 -20 -20 -20 -20 -20 -20 -20 -20 -20
-20 -20 -20 -20 -20 -20 -20 -20 -20 -20 -20 -20 -20 -20 -20 -20 -20 -20 -20 -20 -20 -20
-20 -20 -20 -20 -20 -20 -20 -20 -20 -20 -20 -20 -20 -20 -20 -20 -20 -20 -20 -20 -20 1
-20 -20 -20 -20 -20 -20 -20 -20 -20 -20 -20 -20 -20 -20 -20 -20 -20 -20 -20 -20 -20 -20
-20 -20 -20 -20 -20 -20 -20 -20 -20 -20 -20 -20 -20 -20 -20 -20 -20 -20 1 -20 -20 -20
Wind_Speed
9 7 6 6 5 4 4 3 3 5 5 5 5 5 4 2 3 2 3 4 2 2
8 9 7 7 6 4 4 4 5 5 4 4 4 4 4 3 4 4 3 4 4 3
9 8 7 6 7 6 5 4 5 4 4 4 4 5 5 4 5 4 4 4 5 4
7 7 7 6 6 5 5 4 4 4 4 5 5 5 5 5 5 5 6 6 5 6
8 7 7 6 6 5 5 4 4 4 5 5 5 6 6 6 6 6 7 7 6 8
7 7 7 6 5 5 4 4 5 5 6 6 5 6 6 6 6 6 7 7 7 9
7 6 6 5 5 5 4 5 5 4 5 5 6 6 6 6 6 6 6 6 7 7
6 6 6 5 5 5 5 4 3 5 5 5 5 5 7 5 6 6 6 6 6 7
6 6 5 5 5 5 4 4 4 5 5 6 5 14 17 14 5 5 6 8 9 7
6 5 5 5 4 3 3 3 4 5 5 6 6 14 17 18 4 5 6 8 10 10
6 5 5 4 3 3 2 3 4 5 6 6 6 16 18 19 6 6 7 8 9 10
5 5 4 4 3 2 2 3 3 4 6 6 7 15 18 16 7 8 8 7 7 10
5 5 4 2 2 2 2 3 4 6 5 9 7 14 18 16 8 9 9 7 8 15
5 4 3 2 2 3 4 4 5 5 6 6 7 8 18 20 10 9 9 9 10 10
Wind_Direction
105 108 101 112 114 105 104 101 81 71 62 51 43 33 27 13 336 344 317 315 284 274
103 104 111 106 100 99 101 109 80 70 59 40 29 17 5 349 327 321 297 289 261 265
106 101 105 102 100 98 92 81 77 62 46 24 9 5 1 335 313 318 304 275 288 280
102 99 98 95 94 94 88 75 65 47 27 12 3 355 347 328 308 320 299 290 281 274
104 102 96 93 93 90 83 64 56 32 21 7 354 344 333 316 308 300 297 287 283 272
103 100 99 100 92 83 75 52 33 29 14 352 341 326 308 292 288 288 286 282 277 282
111 112 110 103 92 76 60 48 27 14 356 345 323 304 294 289 291 289 283 287 286 286
116 112 107 95 81 67 53 39 22 1 348 336 318 319 315 314 302 301 310 300 289 292
115 112 106 94 74 57 36 19 13 354 335 329 330 329 332 333 325 324 305 311 307 291
124 115 104 81 65 44 15 3 346 336 334 323 318 321 328 328 320 299 297 297 301 301
122 113 92 79 49 9 1 340 332 323 325 320 308 322 326 326 310 294 278 281 285 286
116 114 103 68 20 336 349 334 326 309 317 316 300 320 329 331 315 301 284 279 288 290
122 110 95 78 9 344 346 318 320 317 310 308 308 315 330 330 316 311 308 306 284 312
101 107 93 64 25 352 333 329 330 310 296 294 301 306 327 329 323 311 318 323 323 318